Location: Poughquag
(41.6090°N, 73.6820°W)
Time: 08:49:26
(UTC-04:00)

Vanguard 1 Rocket - Visible Passes

Search period start: 14 October 2019 00:00
Search period end: 24 October 2019 00:00
Orbit: 650 x 4226 km, 34.3° (Epoch: 13 October)

Date Brightness Start Highest point End Pass type
(mag) Time Alt. Az. Time Alt. Az. Time Alt. Az.
14 Oct 11.1 18:32:05 10° W 18:55:38 45° SW 19:13:04 10° SSE visible
14 Oct 11.4 21:11:45 10° W 21:21:41 15° WSW 21:29:54 10° SSW visible
15 Oct 11.3 19:51:34 10° W 20:09:56 27° SW 20:23:51 10° S visible
16 Oct 11.3 18:34:46 10° W 18:57:14 40° SW 19:14:43 10° SSE visible
16 Oct 11.6 21:21:45 10° WSW 21:23:00 10° WSW 21:24:15 10° WSW visible
17 Oct 11.5 19:55:17 10° W 20:11:18 22° SW 20:24:17 10° SSW visible
18 Oct 11.4 18:37:40 10° W 18:58:45 34° SW 19:16:00 10° SSE visible
19 Oct 11.7 20:00:00 10° W 20:12:39 17° WSW 20:23:36 10° SSW visible
20 Oct 11.6 18:40:56 10° W 19:00:12 28° SW 19:16:48 10° S visible
21 Oct 11.9 20:07:26 10° WSW 20:14:00 12° WSW 20:20:11 10° SW visible
22 Oct 11.9 18:44:45 10° W 19:01:37 23° SW 19:16:53 10° S visible
